• In Austria
  • List of Countries
  • For 7 days
  • Water Temperature
  • Satellite Maps
  • Weather Map
  • News
  • Weather Widgets
  • user-avatar
    Login

    Hourly Weather Pieski

    Today, 20 September, Thursday

    Time Temperature Precipitation Wind Pressure Humidity
    00:00 +20°C° 0.1 mm 2 mps 756 mmHg 71%
    01:00 +20°C° 0.1 mm 2 mps 756 mmHg 74%
    02:00 +20°C° 0 mm 2 mps 756 mmHg 76%
    03:00 +19°C° 0 mm 2 mps 756 mmHg 77%
    04:00 +19°C° 0 mm 2 mps 756 mmHg 79%
    05:00 +19°C° 0 mm 2 mps 756 mmHg 79%
    06:00 +19°C° 0 mm 2 mps 756 mmHg 78%
    07:00 +19°C° 0 mm 2 mps 756 mmHg 78%
    08:00 +21°C° 0 mm 2 mps 756 mmHg 70%
    09:00 +24°C° 0 mm 2 mps 756 mmHg 63%
    10:00 +26°C° 0 mm 2 mps 757 mmHg 55%
    11:00 +27°C° 0 mm 2 mps 756 mmHg 52%
    12:00 +28°C° 0 mm 3 mps 756 mmHg 49%
    13:00 +29°C° 0 mm 3 mps 756 mmHg 45%
    14:00 +29°C° 0 mm 3 mps 755 mmHg 45%
    15:00 +29°C° 0 mm 3 mps 755 mmHg 45%
    16:00 +29°C° 0 mm 3 mps 755 mmHg 44%
    17:00 +28°C° 0 mm 3 mps 754 mmHg 50%
    18:00 +26°C° 0 mm 2 mps 754 mmHg 55%
    19:00 +24°C° 0 mm 2 mps 754 mmHg 60%
    20:00 +24°C° 0 mm 2 mps 754 mmHg 62%
    21:00 +23°C° 0 mm 2 mps 754 mmHg 64%
    22:00 +23°C° 0 mm 2 mps 754 mmHg 65%
    23:00 +21°C° 0 mm 3 mps 753 mmHg 66%

    Tomorrow, 21 September, Friday

    Time Temperature Precipitation Wind Pressure Humidity
    00:00 +21°C° 0 mm 3 mps 753 mmHg 66%
    01:00 +21°C° 0 mm 3 mps 753 mmHg 67%
    02:00 +20°C° 0 mm 3 mps 752 mmHg 67%
    03:00 +20°C° 0 mm 3 mps 752 mmHg 68%
    04:00 +20°C° 0 mm 3 mps 752 mmHg 68%
    05:00 +20°C° 0 mm 3 mps 751 mmHg 68%
    06:00 +20°C° 0 mm 4 mps 751 mmHg 67%
    07:00 +20°C° 0 mm 4 mps 751 mmHg 67%
    08:00 +22°C° 0 mm 5 mps 750 mmHg 60%
    09:00 +26°C° 0 mm 5 mps 750 mmHg 53%
    10:00 +28°C° 0 mm 6 mps 750 mmHg 46%
    11:00 +29°C° 0 mm 6 mps 749 mmHg 41%
    12:00 +30°C° 0 mm 7 mps 748 mmHg 37%
    13:00 +32°C° 0 mm 7 mps 748 mmHg 32%
    14:00 +30°C° 0 mm 7 mps 747 mmHg 34%
    15:00 +30°C° 0 mm 6 mps 747 mmHg 36%
    16:00 +30°C° 0 mm 6 mps 747 mmHg 38%
    17:00 +26°C° 0.1 mm 6 mps 748 mmHg 46%
    18:00 +21°C° 0.1 mm 7 mps 749 mmHg 54%
    19:00 +16°C° 0.1 mm 7 mps 750 mmHg 61%
    20:00 +15°C° 0.1 mm 6 mps 751 mmHg 60%
    21:00 +15°C° 0.1 mm 5 mps 752 mmHg 60%
    22:00 +14°C° 0.1 mm 3 mps 753 mmHg 59%
    23:00 +14°C° 0 mm 4 mps 753 mmHg 56%

    Day after tomorrow, 22 September, Saturday

    Time Temperature Precipitation Wind Pressure Humidity
    00:00 +14°C° 0 mm 4 mps 753 mmHg 53%
    01:00 +14°C° 0 mm 4 mps 753 mmHg 50%
    02:00 +14°C° 0 mm 4 mps 754 mmHg 51%
    03:00 +13°C° 0 mm 4 mps 754 mmHg 51%
    04:00 +13°C° 0 mm 4 mps 754 mmHg 51%
    05:00 +13°C° 0 mm 5 mps 754 mmHg 53%
    06:00 +12°C° 0 mm 5 mps 755 mmHg 55%
    07:00 +12°C° 0 mm 5 mps 755 mmHg 57%
    08:00 +13°C° 0 mm 6 mps 755 mmHg 54%
    09:00 +15°C° 0 mm 6 mps 755 mmHg 51%
    10:00 +16°C° 0 mm 6 mps 755 mmHg 48%
    11:00 +16°C° 0 mm 6 mps 755 mmHg 45%
    12:00 +17°C° 0 mm 7 mps 755 mmHg 42%
    13:00 +18°C° 0 mm 7 mps 755 mmHg 40%
    14:00 +19°C° 0 mm 6 mps 755 mmHg 40%
    15:00 +17°C° 0 mm 6 mps 755 mmHg 40%
    16:00 +17°C° 0 mm 6 mps 755 mmHg 41%
    17:00 +16°C° 0 mm 5 mps 755 mmHg 43%
    18:00 +16°C° 0 mm 5 mps 755 mmHg 45%
    19:00 +15°C° 0 mm 4 mps 755 mmHg 47%
    20:00 +14°C° 0 mm 4 mps 756 mmHg 50%
    21:00 +13°C° 0 mm 4 mps 756 mmHg 53%
    22:00 +12°C° 0 mm 3 mps 756 mmHg 55%
    23:00 +12°C° 0 mm 3 mps 756 mmHg 58%

    23 September, Sunday

    Time Temperature Precipitation Wind Pressure Humidity
    00:00 +11°C° 0 mm 3 mps 756 mmHg 61%
    01:00 +11°C° 0 mm 3 mps 756 mmHg 64%
    02:00 +10°C° 0 mm 3 mps 756 mmHg 66%
    03:00 +10°C° 0 mm 3 mps 756 mmHg 68%
    04:00 +9°C° 0 mm 3 mps 756 mmHg 70%
    05:00 +9°C° 0 mm 3 mps 756 mmHg 70%
    06:00 +10°C° 0 mm 3 mps 756 mmHg 70%
    07:00 +10°C° 0 mm 3 mps 756 mmHg 69%
    08:00 +11°C° 0 mm 4 mps 755 mmHg 63%
    09:00 +13°C° 0 mm 4 mps 755 mmHg 56%
    10:00 +14°C° 0 mm 4 mps 755 mmHg 50%
    11:00 +15°C° 0 mm 4 mps 754 mmHg 48%
    12:00 +15°C° 0 mm 4 mps 753 mmHg 46%
    13:00 +17°C° 0 mm 4 mps 752 mmHg 43%
    14:00 +17°C° 0.1 mm 3 mps 751 mmHg 49%
    15:00 +16°C° 0.1 mm 3 mps 750 mmHg 55%
    16:00 +14°C° 0.1 mm 3 mps 749 mmHg 61%
    17:00 +14°C° 3.3 mm 3 mps 748 mmHg 70%
    18:00 +13°C° 3.3 mm 4 mps 746 mmHg 79%
    19:00 +12°C° 3.3 mm 5 mps 745 mmHg 88%
    20:00 +13°C° 4.1 mm 5 mps 743 mmHg 90%
    21:00 +14°C° 4.1 mm 5 mps 741 mmHg 91%
    22:00 +15°C° 4.1 mm 6 mps 739 mmHg 92%
    23:00 +15°C° 2.7 mm 6 mps 738 mmHg 91%

    24 September, Monday

    Time Temperature Precipitation Wind Pressure Humidity
    00:00 +16°C° 2.7 mm 6 mps 736 mmHg 90%
    01:00 +17°C° 2.7 mm 7 mps 735 mmHg 89%
    02:00 +16°C° 0.6 mm 7 mps 734 mmHg 84%
    03:00 +13°C° 0.6 mm 8 mps 733 mmHg 79%
    04:00 +12°C° 0.6 mm 8 mps 733 mmHg 74%
    05:00 +12°C° 0.1 mm 8 mps 733 mmHg 77%
    06:00 +11°C° 0.1 mm 7 mps 733 mmHg 80%
    07:00 +11°C° 0.1 mm 6 mps 734 mmHg 83%
    08:00 +11°C° 0.9 mm 8 mps 736 mmHg 82%
    09:00 +9°C° 0.9 mm 11 mps 737 mmHg 81%
    10:00 +9°C° 0.9 mm 13 mps 739 mmHg 80%
    11:00 +9°C° 0.4 mm 12 mps 741 mmHg 76%
    12:00 +10°C° 0.4 mm 12 mps 743 mmHg 72%
    13:00 +11°C° 0.4 mm 11 mps 745 mmHg 68%
    14:00 +11°C° 0.2 mm 11 mps 747 mmHg 67%
    15:00 +11°C° 0.2 mm 11 mps 748 mmHg 67%
    16:00 +11°C° 0.2 mm 11 mps 749 mmHg 67%
    17:00 +10°C° 0.2 mm 9 mps 751 mmHg 69%
    18:00 +9°C° 0.2 mm 8 mps 752 mmHg 72%
    19:00 +9°C° 0.2 mm 7 mps 753 mmHg 75%
    20:00 +8°C° 0.1 mm 7 mps 754 mmHg 76%
    21:00 +8°C° 0.1 mm 7 mps 755 mmHg 76%
    22:00 +8°C° 0.1 mm 7 mps 755 mmHg 77%
    23:00 +8°C° 0 mm 6 mps 756 mmHg 76%

    25 September, Tuesday

    Time Temperature Precipitation Wind Pressure Humidity
    00:00 +7°C° 0 mm 6 mps 756 mmHg 75%
    01:00 +7°C° 0 mm 6 mps 757 mmHg 74%
    02:00 +7°C° 0 mm 6 mps 757 mmHg 75%
    03:00 +7°C° 0 mm 6 mps 757 mmHg 76%
    04:00 +7°C° 0 mm 6 mps 758 mmHg 77%
    05:00 +7°C° 0.1 mm 6 mps 758 mmHg 78%
    06:00 +7°C° 0.1 mm 5 mps 759 mmHg 79%
    07:00 +7°C° 0.1 mm 5 mps 759 mmHg 80%
    08:00 +8°C° 0.2 mm 6 mps 760 mmHg 74%
    09:00 +9°C° 0.2 mm 6 mps 760 mmHg 68%
    10:00 +10°C° 0.2 mm 6 mps 761 mmHg 61%
    11:00 +11°C° 0.2 mm 6 mps 761 mmHg 58%
    12:00 +11°C° 0.2 mm 6 mps 761 mmHg 55%
    13:00 +13°C° 0.2 mm 6 mps 762 mmHg 52%
    14:00 +13°C° 0 mm 6 mps 762 mmHg 51%
    15:00 +13°C° 0 mm 6 mps 762 mmHg 50%
    16:00 +13°C° 0 mm 5 mps 762 mmHg 49%
    17:00 +12°C° 0 mm 4 mps 762 mmHg 55%
    18:00 +11°C° 0 mm 3 mps 763 mmHg 61%
    19:00 +9°C° 0 mm 2 mps 763 mmHg 67%
    20:00 +9°C° 0 mm 2 mps 763 mmHg 71%
    21:00 +9°C° 0 mm 2 mps 763 mmHg 75%
    22:00 +9°C° 0 mm 2 mps 763 mmHg 78%
    23:00 +9°C° 0 mm 2 mps 764 mmHg 82%
    Show more